DLH6EV EDDM-LICA

Flight info

Callsign DLH6EV
Flight time N/A
Altitude 37000
Route TURBU7S/26L TURBU Y107 TOBSO DCT BAKOR DCT BELOV DCT AMLON DCT POLIT/N0382F190 M620 ARBUM
Aircraft A320/M-SDE3FGHIRWY/LB1

Departure

Time N/A
Airport Munich Airport (EDDM)

Arrival

Time 2026-04-25 19:07
Airport Lamezia Terme Sant'Eufemia International Airport (LICA)
Time Latitude Longitude Altitude Speed Heading
2026-04-25 18:04 45.36137 12.33218 37008 ft 459 kts 166°
2026-04-25 18:04 45.33111 12.34650 37010 ft 459 kts 166°
2026-04-25 18:05 45.27085 12.37691 36989 ft 460 kts 163°
2026-04-25 18:05 45.21124 12.40995 36992 ft 460 kts 162°
2026-04-25 18:06 45.15167 12.44329 37011 ft 460 kts 163°
2026-04-25 18:06 45.09205 12.47587 37010 ft 459 kts 163°
2026-04-25 18:07 45.03239 12.50791 37016 ft 458 kts 163°
2026-04-25 18:07 44.97280 12.53982 37019 ft 458 kts 163°
2026-04-25 18:08 44.91327 12.57174 37015 ft 458 kts 163°
2026-04-25 18:08 44.85375 12.60365 37019 ft 457 kts 163°
2026-04-25 18:09 44.79425 12.63546 37017 ft 457 kts 163°
2026-04-25 18:09 44.73481 12.66717 37023 ft 457 kts 163°
2026-04-25 18:10 44.67546 12.69889 37027 ft 456 kts 163°
2026-04-25 18:10 44.61610 12.73042 37022 ft 456 kts 163°
2026-04-25 18:11 44.55676 12.76179 37025 ft 456 kts 163°
2026-04-25 18:11 44.49744 12.79318 37024 ft 455 kts 163°
2026-04-25 18:12 44.43819 12.82440 37012 ft 455 kts 163°
2026-04-25 18:12 44.37888 12.85551 37019 ft 455 kts 163°
2026-04-25 18:13 44.31955 12.88643 37024 ft 455 kts 163°
2026-04-25 18:13 44.26049 12.91613 37018 ft 454 kts 163°
2026-04-25 18:14 44.17115 12.96034 37016 ft 454 kts 163°
2026-04-25 18:14 44.11175 12.98992 37017 ft 454 kts 163°
2026-04-25 18:15 44.05228 13.01954 37020 ft 454 kts 163°
2026-04-25 18:15 43.99284 13.04898 37024 ft 453 kts 163°
2026-04-25 18:16 43.93342 13.07833 37031 ft 453 kts 163°
2026-04-25 18:17 43.84425 13.12226 37011 ft 453 kts 163°
2026-04-25 18:17 43.78478 13.15157 37014 ft 453 kts 163°
2026-04-25 18:18 43.72537 13.18071 37023 ft 453 kts 163°
2026-04-25 18:18 43.66597 13.20977 37024 ft 453 kts 163°
2026-04-25 18:19 43.60666 13.23877 37020 ft 452 kts 162°
2026-04-25 18:19 43.54734 13.26777 37034 ft 452 kts 163°
2026-04-25 18:20 43.48810 13.29662 37034 ft 452 kts 163°
2026-04-25 18:20 43.42884 13.32542 37026 ft 451 kts 162°
2026-04-25 18:21 43.36965 13.35410 37032 ft 451 kts 162°
2026-04-25 18:21 43.31056 13.38264 37033 ft 450 kts 162°
2026-04-25 18:22 43.25145 13.41115 37043 ft 450 kts 162°
2026-04-25 18:22 43.20229 13.43479 37039 ft 450 kts 162°
2026-04-25 18:23 43.14330 13.46315 37052 ft 449 kts 162°
2026-04-25 18:23 43.08427 13.49158 37054 ft 449 kts 162°
2026-04-25 18:24 43.02498 13.52003 37052 ft 449 kts 162°
2026-04-25 18:24 42.96646 13.54799 37053 ft 448 kts 162°
2026-04-25 18:25 42.90764 13.57606 37065 ft 448 kts 162°
2026-04-25 18:25 42.84886 13.60408 37065 ft 447 kts 162°
2026-04-25 18:26 42.79010 13.63201 37069 ft 447 kts 162°
2026-04-25 18:26 42.73141 13.65984 37062 ft 447 kts 162°
2026-04-25 18:27 42.67272 13.68762 37061 ft 446 kts 162°
2026-04-25 18:27 42.61366 13.71546 37069 ft 446 kts 162°
2026-04-25 18:28 42.55505 13.74306 37073 ft 446 kts 162°
2026-04-25 18:28 42.49652 13.77072 37072 ft 445 kts 162°
2026-04-25 18:29 42.40877 13.81189 37072 ft 445 kts 162°
2026-04-25 18:30 42.29228 13.86625 37068 ft 444 kts 162°
2026-04-25 18:30 42.23391 13.89345 37068 ft 444 kts 162°
2026-04-25 18:31 42.17560 13.92057 37070 ft 443 kts 162°
2026-04-25 18:31 42.11740 13.94762 37080 ft 443 kts 161°
2026-04-25 18:32 42.05910 13.97467 37086 ft 442 kts 162°
2026-04-25 18:32 42.00090 14.00165 37068 ft 442 kts 162°
2026-04-25 18:33 41.94283 14.02849 37080 ft 442 kts 162°
2026-04-25 18:33 41.88469 14.05524 37078 ft 442 kts 162°
2026-04-25 18:34 41.82654 14.08196 37082 ft 442 kts 162°
2026-04-25 18:34 41.76838 14.10864 37074 ft 442 kts 161°
2026-04-25 18:35 41.71024 14.13535 37087 ft 442 kts 161°
2026-04-25 18:35 41.65216 14.16193 37078 ft 441 kts 161°
2026-04-25 18:36 41.59409 14.18842 37092 ft 441 kts 162°
2026-04-25 18:36 41.53614 14.21479 37098 ft 440 kts 162°
2026-04-25 18:37 41.47818 14.24112 37090 ft 440 kts 161°
2026-04-25 18:37 41.42033 14.26740 37093 ft 439 kts 161°
2026-04-25 18:38 41.36250 14.29359 37079 ft 439 kts 161°
2026-04-25 18:38 41.30453 14.31978 37069 ft 440 kts 161°
2026-04-25 18:39 41.24662 14.34585 37078 ft 439 kts 161°
2026-04-25 18:39 41.18915 14.37175 37081 ft 439 kts 161°
2026-04-25 18:40 41.13128 14.39778 37094 ft 439 kts 161°
2026-04-25 18:40 41.07350 14.42376 37108 ft 438 kts 161°
2026-04-25 18:41 41.01571 14.44962 37097 ft 438 kts 161°
2026-04-25 18:41 40.95796 14.47542 37103 ft 438 kts 161°
2026-04-25 18:42 40.90996 14.49690 37106 ft 438 kts 161°
2026-04-25 18:42 40.84243 14.52699 37083 ft 439 kts 161°
2026-04-25 18:43 40.78449 14.55279 37086 ft 439 kts 161°
2026-04-25 18:43 40.72653 14.57852 37079 ft 440 kts 161°
2026-04-25 18:44 40.66854 14.60419 37083 ft 440 kts 160°
2026-04-25 18:44 40.64105 14.62142 37084 ft 439 kts 147°
2026-04-25 18:44 40.61564 14.64372 37077 ft 439 kts 146°
2026-04-25 18:45 40.56516 14.68874 37081 ft 439 kts 145°
2026-04-25 18:45 40.51470 14.73386 37078 ft 439 kts 145°
2026-04-25 18:46 40.46422 14.77891 37093 ft 438 kts 146°
2026-04-25 18:46 40.41369 14.82376 37094 ft 439 kts 146°
2026-04-25 18:47 40.36305 14.86859 37090 ft 439 kts 146°
2026-04-25 18:47 40.31236 14.91336 37097 ft 440 kts 145°
2026-04-25 18:48 40.26200 14.95790 37109 ft 440 kts 145°
2026-04-25 18:48 40.21114 15.00266 36802 ft 441 kts 146°
2026-04-25 18:49 40.18526 15.02524 36408 ft 441 kts 146°
2026-04-25 18:49 40.15999 15.04709 36027 ft 442 kts 146°
2026-04-25 18:49 40.13433 15.06917 35560 ft 441 kts 146°
2026-04-25 18:49 40.10870 15.09124 35069 ft 441 kts 146°
2026-04-25 18:50 40.08310 15.11332 34436 ft 443 kts 146°
2026-04-25 18:50 40.05737 15.13553 33659 ft 443 kts 146°
2026-04-25 18:50 40.03161 15.15780 32856 ft 445 kts 146°
2026-04-25 18:50 40.00571 15.18020 32076 ft 447 kts 146°
2026-04-25 18:51 39.97977 15.20259 31316 ft 448 kts 146°
2026-04-25 18:51 39.97100 15.21016 31064 ft 449 kts 146°
2026-04-25 18:51 39.92737 15.24774 29801 ft 453 kts 146°
2026-04-25 18:51 39.90111 15.27030 28781 ft 454 kts 146°
2026-04-25 18:52 39.87469 15.29297 27780 ft 455 kts 146°
2026-04-25 18:52 39.84829 15.31559 26935 ft 452 kts 146°
2026-04-25 18:52 39.82212 15.33802 26154 ft 449 kts 146°
2026-04-25 18:52 39.79609 15.36029 25473 ft 446 kts 146°
2026-04-25 18:53 39.77018 15.38243 25199 ft 446 kts 146°
2026-04-25 18:53 39.74426 15.40458 24353 ft 449 kts 146°
2026-04-25 18:53 39.71791 15.42719 23053 ft 457 kts 146°
2026-04-25 18:53 39.69138 15.45000 22027 ft 458 kts 146°
2026-04-25 18:54 39.63844 15.49527 20221 ft 454 kts 147°
2026-04-25 18:54 39.61149 15.51633 19441 ft 450 kts 149°
2026-04-25 18:54 39.58427 15.53598 18697 ft 446 kts 150°
2026-04-25 18:55 39.55700 15.55478 17921 ft 442 kts 151°
2026-04-25 18:55 39.52987 15.57326 17141 ft 438 kts 151°
2026-04-25 18:55 39.50313 15.59164 16402 ft 433 kts 151°
2026-04-25 18:55 39.47675 15.61010 15679 ft 429 kts 150°
2026-04-25 18:56 39.45069 15.62858 14970 ft 425 kts 150°
2026-04-25 18:56 39.42493 15.64703 14286 ft 421 kts 150°
2026-04-25 18:56 39.39943 15.66536 13595 ft 417 kts 150°
2026-04-25 18:56 39.37424 15.68343 12880 ft 412 kts 150°
2026-04-25 18:57 39.34928 15.70129 12140 ft 408 kts 150°
2026-04-25 18:57 39.32452 15.71895 11401 ft 405 kts 150°
2026-04-25 18:57 39.30030 15.73620 10689 ft 402 kts 150°
2026-04-25 18:57 39.29207 15.74206 10570 ft 397 kts 150°
2026-04-25 18:58 39.25350 15.76952 10375 ft 365 kts 150°
2026-04-25 18:58 39.21253 15.79851 10120 ft 310 kts 150°
2026-04-25 18:58 39.19400 15.81162 9686 ft 299 kts 150°
2026-04-25 18:59 39.15807 15.83708 8545 ft 291 kts 150°
2026-04-25 18:59 39.12310 15.86184 7598 ft 284 kts 150°
2026-04-25 19:00 39.08880 15.88605 6448 ft 279 kts 150°
2026-04-25 19:00 39.07185 15.89803 5921 ft 277 kts 150°
2026-04-25 19:01 39.03837 15.92165 4934 ft 273 kts 152°
2026-04-25 19:01 39.02180 15.93332 4575 ft 269 kts 152°
2026-04-25 19:01 39.00559 15.94475 4210 ft 265 kts 152°
2026-04-25 19:01 38.98944 15.95612 3869 ft 261 kts 152°
2026-04-25 19:02 38.95907 15.97749 3624 ft 237 kts 152°
2026-04-25 19:02 38.94513 15.98781 3500 ft 227 kts 143°
2026-04-25 19:02 38.93508 16.00278 3386 ft 219 kts 116°
2026-04-25 19:03 38.93029 16.02745 3186 ft 211 kts 97°
2026-04-25 19:03 38.92689 16.05785 2711 ft 203 kts 97°
2026-04-25 19:03 38.92483 16.07564 2413 ft 199 kts 98°
2026-04-25 19:04 38.92114 16.10975 1895 ft 189 kts 97°
2026-04-25 19:04 38.91933 16.12555 1706 ft 171 kts 99°
2026-04-25 19:05 38.91604 16.15429 1222 ft 154 kts 99°
2026-04-25 19:05 38.91262 16.18036 836 ft 150 kts 100°
2026-04-25 19:05 38.91099 16.19393 595 ft 155 kts 98°
2026-04-25 19:06 38.90946 16.20756 430 ft 154 kts 99°
2026-04-25 19:06 38.90635 16.23430 49 ft 144 kts 99°
2026-04-25 19:06 38.90498 16.24599 33 ft 119 kts 99°
2026-04-25 19:07 38.90407 16.25571 31 ft 9 kts 18°
2026-04-25 19:07 38.90462 16.25562 32 ft 7 kts 337°
2026-04-25 19:08 38.90554 16.25477 35 ft 17 kts 319°
2026-04-25 19:08 38.90626 16.25344 34 ft 20 kts 294°
2026-04-25 19:09 38.90696 16.24807 32 ft 26 kts 278°
2026-04-25 19:09 38.90712 16.24668 32 ft 13 kts 278°
2026-04-25 19:09 38.90790 16.24627 32 ft 6 kts 96°
2026-04-25 19:10 38.90816 16.24669 32 ft 7 kts 12°
2026-04-25 19:10 38.90846 16.24674 32 ft 3 kts
2026-04-25 19:10 38.90853 16.24686 31 ft 1 kts 64°
2026-04-25 19:10 38.90854 16.24690 31 ft 0 kts 62°